• In Italy
  • List of Countries
  • For 7 days
  • Water Temperature
  • Satellite Maps
  • Weather Map
  • Weather Widgets
  • user-avatar
    Login

    Hourly Weather Aksakovo

    Today, 18 August, Saturday

    Time Temperature Precipitation Wind Pressure Humidity
    00:00 +10°C° 0 mm 3 mps 732 mmHg 80%
    01:00 +10°C° 0 mm 3 mps 732 mmHg 81%
    02:00 +9°C° 0 mm 3 mps 732 mmHg 82%
    03:00 +9°C° 0 mm 3 mps 732 mmHg 83%
    04:00 +8°C° 0 mm 3 mps 732 mmHg 85%
    05:00 +9°C° 0 mm 3 mps 732 mmHg 83%
    06:00 +8°C° 0 mm 4 mps 733 mmHg 82%
    07:00 +10°C° 0 mm 4 mps 733 mmHg 81%
    08:00 +10°C° 0 mm 5 mps 733 mmHg 76%
    09:00 +13°C° 0 mm 5 mps 733 mmHg 71%
    10:00 +14°C° 0 mm 5 mps 733 mmHg 65%
    11:00 +15°C° 0 mm 5 mps 733 mmHg 63%
    12:00 +15°C° 0 mm 5 mps 733 mmHg 61%
    13:00 +16°C° 0 mm 6 mps 733 mmHg 59%
    14:00 +16°C° 0 mm 6 mps 733 mmHg 59%
    15:00 +16°C° 0 mm 5 mps 733 mmHg 59%
    16:00 +17°C° 0 mm 5 mps 733 mmHg 58%
    17:00 +17°C° 0 mm 4 mps 733 mmHg 64%
    18:00 +15°C° 0 mm 4 mps 733 mmHg 69%
    19:00 +14°C° 0 mm 4 mps 733 mmHg 74%
    20:00 +12°C° 0 mm 4 mps 733 mmHg 78%
    21:00 +11°C° 0 mm 4 mps 733 mmHg 82%
    22:00 +10°C° 0 mm 3 mps 733 mmHg 87%
    23:00 +9°C° 0 mm 3 mps 733 mmHg 88%

    Tomorrow, 19 August, Sunday

    Time Temperature Precipitation Wind Pressure Humidity
    00:00 +9°C° 0 mm 3 mps 733 mmHg 90%
    01:00 +8°C° 0 mm 3 mps 733 mmHg 91%
    02:00 +8°C° 0 mm 3 mps 733 mmHg 91%
    03:00 +7°C° 0 mm 3 mps 734 mmHg 92%
    04:00 +7°C° 0 mm 3 mps 734 mmHg 92%
    05:00 +7°C° 0 mm 3 mps 734 mmHg 89%
    06:00 +7°C° 0 mm 4 mps 734 mmHg 86%
    07:00 +7°C° 0 mm 4 mps 734 mmHg 83%
    08:00 +10°C° 0 mm 4 mps 734 mmHg 78%
    09:00 +12°C° 0 mm 5 mps 734 mmHg 73%
    10:00 +14°C° 0 mm 5 mps 734 mmHg 67%
    11:00 +15°C° 0 mm 5 mps 734 mmHg 64%
    12:00 +17°C° 0 mm 4 mps 734 mmHg 61%
    13:00 +17°C° 0 mm 4 mps 734 mmHg 58%
    14:00 +18°C° 0 mm 4 mps 734 mmHg 58%
    15:00 +18°C° 0 mm 4 mps 734 mmHg 57%
    16:00 +18°C° 0 mm 4 mps 734 mmHg 57%
    17:00 +17°C° 0 mm 4 mps 733 mmHg 63%
    18:00 +14°C° 0 mm 3 mps 733 mmHg 69%
    19:00 +13°C° 0 mm 3 mps 733 mmHg 74%
    20:00 +13°C° 0 mm 2 mps 733 mmHg 77%
    21:00 +12°C° 0 mm 2 mps 733 mmHg 80%
    22:00 +10°C° 0 mm 2 mps 733 mmHg 83%
    23:00 +9°C° 0 mm 2 mps 733 mmHg 84%

    Day after tomorrow, 20 August, Monday

    Time Temperature Precipitation Wind Pressure Humidity
    00:00 +9°C° 0 mm 2 mps 733 mmHg 85%
    01:00 +9°C° 0 mm 1 mps 733 mmHg 86%
    02:00 +9°C° 0 mm 1 mps 733 mmHg 87%
    03:00 +9°C° 0 mm 1 mps 733 mmHg 88%
    04:00 +9°C° 0 mm 1 mps 733 mmHg 88%
    05:00 +9°C° 0 mm 1 mps 733 mmHg 86%
    06:00 +10°C° 0 mm 1 mps 733 mmHg 83%
    07:00 +11°C° 0 mm 1 mps 733 mmHg 81%
    08:00 +13°C° 0 mm 1 mps 733 mmHg 75%
    09:00 +14°C° 0 mm 2 mps 733 mmHg 68%
    10:00 +16°C° 0 mm 2 mps 733 mmHg 62%
    11:00 +17°C° 0 mm 2 mps 733 mmHg 59%
    12:00 +18°C° 0 mm 3 mps 732 mmHg 56%
    13:00 +19°C° 0 mm 3 mps 732 mmHg 53%
    14:00 +19°C° 0 mm 3 mps 732 mmHg 55%
    15:00 +19°C° 0 mm 3 mps 732 mmHg 56%
    16:00 +19°C° 0 mm 3 mps 732 mmHg 58%
    17:00 +18°C° 0 mm 3 mps 731 mmHg 64%
    18:00 +18°C° 0 mm 2 mps 731 mmHg 70%
    19:00 +17°C° 0 mm 2 mps 731 mmHg 76%
    20:00 +16°C° 0 mm 2 mps 731 mmHg 78%
    21:00 +14°C° 0 mm 3 mps 731 mmHg 80%
    22:00 +14°C° 0 mm 3 mps 730 mmHg 82%
    23:00 +14°C° 0.2 mm 4 mps 730 mmHg 82%

    21 August, Tuesday

    Time Temperature Precipitation Wind Pressure Humidity
    00:00 +14°C° 0.2 mm 4 mps 730 mmHg 81%
    01:00 +15°C° 0.2 mm 5 mps 730 mmHg 81%
    02:00 +14°C° 0.2 mm 5 mps 730 mmHg 84%
    03:00 +14°C° 0.2 mm 4 mps 729 mmHg 87%
    04:00 +13°C° 0.2 mm 4 mps 729 mmHg 90%
    05:00 +14°C° 0 mm 4 mps 729 mmHg 90%
    06:00 +14°C° 0 mm 4 mps 729 mmHg 90%
    07:00 +14°C° 0 mm 4 mps 730 mmHg 90%
    08:00 +17°C° 0 mm 4 mps 730 mmHg 85%
    09:00 +19°C° 0 mm 4 mps 730 mmHg 81%
    10:00 +20°C° 0 mm 4 mps 730 mmHg 76%
    11:00 +21°C° 0.2 mm 4 mps 730 mmHg 72%
    12:00 +22°C° 0.2 mm 5 mps 730 mmHg 69%
    13:00 +23°C° 0.2 mm 5 mps 730 mmHg 65%
    14:00 +23°C° 0.4 mm 5 mps 730 mmHg 66%
    15:00 +23°C° 0.4 mm 5 mps 729 mmHg 66%
    16:00 +23°C° 0.4 mm 5 mps 729 mmHg 66%
    17:00 +22°C° 0.2 mm 5 mps 729 mmHg 71%
    18:00 +21°C° 0.2 mm 4 mps 729 mmHg 76%
    19:00 +20°C° 0.2 mm 3 mps 729 mmHg 81%
    20:00 +19°C° 0 mm 3 mps 728 mmHg 83%
    21:00 +18°C° 0 mm 3 mps 728 mmHg 85%
    22:00 +17°C° 0 mm 3 mps 728 mmHg 88%
    23:00 +17°C° 0 mm 3 mps 728 mmHg 87%

    22 August, Wednesday

    Time Temperature Precipitation Wind Pressure Humidity
    00:00 +16°C° 0 mm 3 mps 728 mmHg 86%
    01:00 +16°C° 0 mm 3 mps 728 mmHg 85%
    02:00 +14°C° 0 mm 3 mps 728 mmHg 85%
    03:00 +14°C° 0 mm 3 mps 727 mmHg 85%
    04:00 +14°C° 0 mm 3 mps 727 mmHg 85%
    05:00 +14°C° 0 mm 3 mps 727 mmHg 83%
    06:00 +14°C° 0 mm 4 mps 727 mmHg 81%
    07:00 +15°C° 0 mm 4 mps 727 mmHg 79%
    08:00 +17°C° 0 mm 5 mps 727 mmHg 73%
    09:00 +20°C° 0 mm 5 mps 727 mmHg 66%
    10:00 +22°C° 0 mm 6 mps 727 mmHg 59%
    11:00 +23°C° 0 mm 7 mps 727 mmHg 55%
    12:00 +24°C° 0 mm 7 mps 726 mmHg 52%
    13:00 +26°C° 0 mm 7 mps 726 mmHg 48%
    14:00 +24°C° 0.1 mm 7 mps 726 mmHg 51%
    15:00 +24°C° 0.1 mm 6 mps 726 mmHg 54%
    16:00 +23°C° 0.1 mm 6 mps 726 mmHg 57%
    17:00 +21°C° 0.7 mm 5 mps 725 mmHg 67%
    18:00 +19°C° 0.7 mm 5 mps 725 mmHg 77%
    19:00 +17°C° 0.7 mm 4 mps 725 mmHg 86%
    20:00 +15°C° 0.4 mm 4 mps 725 mmHg 88%
    21:00 +14°C° 0.4 mm 5 mps 725 mmHg 89%
    22:00 +13°C° 0.4 mm 5 mps 726 mmHg 91%
    23:00 +12°C° 0 mm 4 mps 726 mmHg 92%

    23 August, Thursday

    Time Temperature Precipitation Wind Pressure Humidity
    00:00 +12°C° 0 mm 4 mps 726 mmHg 92%
    01:00 +11°C° 0 mm 4 mps 726 mmHg 93%
    02:00 +11°C° 0.1 mm 4 mps 727 mmHg 93%
    03:00 +10°C° 0.1 mm 4 mps 727 mmHg 93%
    04:00 +10°C° 0.1 mm 4 mps 727 mmHg 94%
    05:00 +9°C° 0 mm 5 mps 728 mmHg 92%
    06:00 +9°C° 0 mm 5 mps 729 mmHg 90%
    07:00 +9°C° 0 mm 6 mps 729 mmHg 88%
    08:00 +10°C° 0 mm 6 mps 730 mmHg 82%
    09:00 +10°C° 0 mm 6 mps 730 mmHg 76%
    10:00 +11°C° 0 mm 6 mps 731 mmHg 70%
    11:00 +13°C° 0 mm 6 mps 731 mmHg 65%
    12:00 +14°C° 0 mm 7 mps 731 mmHg 60%
    13:00 +15°C° 0 mm 7 mps 731 mmHg 56%
    14:00 +15°C° 0 mm 6 mps 731 mmHg 56%
    15:00 +15°C° 0 mm 6 mps 732 mmHg 57%
    16:00 +15°C° 0 mm 6 mps 732 mmHg 57%
    17:00 +14°C° 0 mm 5 mps 732 mmHg 62%
    18:00 +13°C° 0 mm 4 mps 732 mmHg 67%
    19:00 +12°C° 0 mm 4 mps 732 mmHg 72%
    20:00 +11°C° 0 mm 3 mps 732 mmHg 75%
    21:00 +10°C° 0 mm 3 mps 732 mmHg 78%
    22:00 +9°C° 0 mm 3 mps 733 mmHg 81%
    23:00 +8°C° 0 mm 3 mps 733 mmHg 83%
    Show more